Regional Weather Roundup
Issued by NWS Sioux Falls, SD

Home | Current Version | Previous Version | Text Only | Print | Product List | Glossary On
Versions: 1 2 3 4 5 6 7 8 9 10 11 12 13 14 15 16 17 18 19 20 21 22 23 24 25 26 27 28 29 30 31 32 33 34 35 36 37 38 39 40 41 42 43 44 45 46 47 48 49 50
818
ASUS43 KFSD 220110
RWRFSD

WEATHER ROUNDUP FOR SE SOUTH DAKOTA/SW MINNESOTA/NW IOWA
NATIONAL WEATHER SERVICE SIOUX FALLS SD
800 PM CDT THU MAY 21 2015

NOTE: "FAIR" INDICATES FEW OR NO CLOUDS BELOW 12,000 FEET WITH NO
SIGNIFICANT WEATHER AND OR OBSTRUCTIONS TO VISIBILITY.


SDZ038>040-050-052>070-220200-
SOUTHEAST SOUTH DAKOTA

CITY           SKY/WX    TMP DP  RH WIND       PRES   REMARKS
BROOKINGS      CLEAR     70  36  28 N8        30.11S
CHAMBERLAIN    CLEAR     65  38  36 S8        30.14S
HURON          PTCLDY    69  42  37 NW8       30.09S
MADISON        FAIR      68  36  30 N10       30.11S
MITCHELL       CLEAR     71  36  27 W7        30.12S
SIOUX FALLS    PTCLDY    67  38  34 NW8       30.10S
WINNER         FAIR      68  31  25 S8        30.15S
YANKTON        CLEAR     68  37  32 SW10      30.12S
$$

MNZ071-072-080-081-089-090-097-098-220200-
SOUTHWEST MINNESOTA

CITY           SKY/WX    TMP DP  RH WIND       PRES   REMARKS
FAIRMONT       CLEAR     70  27  19 NW10      30.07R
JACKSON        CLEAR     70  12  11 N9        30.10R
LUVERNE        CLEAR     72  30  21 N8        30.10R
MARSHALL       CLEAR     70  27  19 N12       30.08S
MONTEVIDEO     CLEAR     66  30  26 N12       30.09R
REDWOOD FALLS  CLEAR     68  32  26 NW9       30.07R
TRACY          CLEAR     69  28  21 N10       30.09S
WINDOM         CLEAR     66  25  20 NW10      30.09R
WORTHINGTON    CLEAR     68  30  24 N15       30.10R
$$

IAZ001>003-012>014-020>022-031-032-NEZ013-014-SDZ071-220200-
NORTHWEST IOWA

CITY           SKY/WX    TMP DP  RH WIND       PRES   REMARKS
CHEROKEE       MOCLDY    67  40  37 NW5       30.10R
DENISON        CLEAR     70  37  30 W10       30.10S
ESTHERVILLE    CLEAR     68  21  16 NW15      30.08R
LE MARS        MOCLDY    72  39  30 W8        30.11S
ORANGE CITY    PTCLDY    64  39  39 NW7       30.11R
SHELDON        CLEAR     70  32  24 NW14      30.09R
SIOUX CITY     CLEAR     72  34  24 W9        30.12S
SPENCER        CLEAR     70  35  27 N10       30.09R
STORM LAKE     PTCLDY    66  37  34 NW9       30.11R
$$

ABBREVIATIONS USED IN REMARKS
   TC - TEMPERATURE IN CELSIUS
  WCI - WIND CHILL INDEX
   HX - HEAT INDEX
  VSB - VISIBILITY




USA.gov is the U.S. government's official web portal to all federal, state and local government web resources and services.